Location: Jonesport
(44.5330°N, 67.5990°W)
Time: 19:41:55
(UTC-05:00)

Iridium 35 - Visible Passes

Search period start: 22 February 2018 00:00
Search period end: 04 March 2018 00:00
Orbit: 776 x 779 km, 86.4° (Epoch: 21 February)

Date Brightness Start Highest point End Pass type
(mag) Time Alt. Az. Time Alt. Az. Time Alt. Az.
22 Feb 6.6 03:00:23 31° E 03:00:27 31° E 03:05:00 10° NNE visible
22 Feb 5.6 04:40:53 33° W 04:41:06 33° W 04:45:48 10° NNW visible
23 Feb 7.5 02:27:29 18° ENE 02:27:29 18° ENE 02:30:39 10° NE visible
23 Feb 5.1 04:07:59 55° NW 04:07:59 55° NW 04:12:36 10° N visible
24 Feb 5.5 03:34:59 56° NNE 03:34:59 56° NNE 03:39:06 10° N visible
24 Feb 6.7 05:15:29 14° WNW 05:15:29 14° WNW 05:17:52 10° NW visible
25 Feb 6.4 03:01:55 35° NE 03:01:55 35° NE 03:05:23 10° NNE visible
25 Feb 6.2 04:42:24 22° WNW 04:42:24 22° WNW 04:45:33 10° NNW visible
26 Feb 7.3 02:28:47 21° NE 02:28:47 21° NE 02:31:19 10° NNE visible
26 Feb 5.9 04:09:16 32° NW 04:09:16 32° NW 04:12:33 10° N visible
27 Feb 7.9 01:55:36 12° NE 01:55:36 12° NE 01:56:38 10° NE visible
27 Feb 6.0 03:36:05 37° N 03:36:05 37° N 03:39:13 10° N visible
28 Feb 6.5 03:02:52 31° NNE 03:02:52 31° NNE 03:05:39 10° N visible
28 Feb 6.8 04:43:21 15° NW 04:43:21 15° NW 04:45:04 10° NNW visible
01 Mar 7.1 02:29:37 22° NE 02:29:37 22° NE 02:31:48 10° NNE visible
01 Mar 6.5 04:10:06 21° NW 04:10:06 21° NW 04:12:24 10° NNW visible
02 Mar 7.7 01:56:21 15° NE 01:56:21 15° NE 01:57:34 10° NNE visible
02 Mar 6.4 03:36:50 26° NNW 03:36:50 26° NNW 03:39:15 10° N visible
03 Mar 6.6 03:03:32 27° N 03:03:32 27° N 03:05:49 10° N visible
03 Mar 7.1 04:44:01 10° NW 04:44:01 10° NW 04:44:04 10° NW visible
